Location: Palomar Observatory
(33.3560°N, 116.8630°W)
Time: 10:46:00
(UTC-07:00)

Iridium 57 - Visible Passes

Search period start: 28 March 2015 00:00
Search period end: 07 April 2015 00:00
Orbit: 776 x 779 km, 86.4° (Epoch: 28 March)

Date Brightness Start Highest point End Pass type
(mag) Time Alt. Az. Time Alt. Az. Time Alt. Az.
28 Mar 5.7 06:10:44 10° S 06:15:56 81° E 06:21:10 10° N visible
29 Mar 7.0 05:37:40 10° SSE 05:42:30 41° E 05:47:23 10° NNE visible
30 Mar 8.2 05:05:22 10° SE 05:09:07 21° E 05:13:04 10° NE visible
31 Mar 8.9 04:35:05 10° E 04:35:50 10° E 04:36:58 10° ENE visible
31 Mar 5.5 06:10:52 10° S 06:16:03 67° W 06:21:14 10° N visible
01 Apr 6.1 05:37:25 10° SSE 05:42:32 62° E 05:47:42 10° N visible
02 Apr 7.4 05:04:37 10° SE 05:09:07 31° E 05:13:44 10° NNE visible
03 Apr 8.4 04:32:45 10° ESE 04:35:47 16° E 04:39:04 10° NE visible
04 Apr 5.5 05:37:24 10° S 05:42:36 87° W 05:47:51 10° N visible
05 Apr 6.6 05:04:12 10° SSE 05:09:09 47° E 05:14:09 10° NNE visible
06 Apr 7.8 04:31:42 10° SE 04:35:45 24° E 04:39:58 10° NNE visible
